Location: Cisewo
(53.3833°N, 14.9000°E)
Time: 10:18:33
(UTC+00:00)

Cosmos 1140 Rocket - Pass Details

Date: 18 April 2021
Orbit: 744 x 767 km, 74.1° (Epoch: 14 May)

Event Time Altitude Azimuth Distance (km) Brightness Sun altitude
Exits shadow 19:38:41 15° 155° (SSE) 1,931 5.0 -12.7°
Maximum altitude 19:42:04 30° 102° (ESE) 1,316 4.3 -13.1°
Drops below altitude 10° 19:46:30 10° 42° (NE) 2,272 5.9 -13.6°
Sets 19:49:06 0° 32° (NNE) 3,202 6.8 -13.9°
